Volver al catálogo

ATLAS 5 CENTAUR DEB

LostHEO
NORAD 52045·DEBRIS·🇺🇸 United States

Lanzado Oct 17, 2018 desde Cape Canaveral Space Force Station

Loading…

Próximos Pases (próximas 24 horas)

TLE

ObsoletoSource: Space-Track

Época: May 14, 2026, 06:32 UTC

1 52045U 18079GP  26134.27264550 -.00000045  00000-0  00000-0 0  9998
2 52045  13.2531  62.0052 4565465 253.0346  53.4037  1.72870191 30108

Sigue ATLAS 5 CENTAUR DEB en tiempo real con AllMySat

Download on the App Store